Location: London
(51.5166°N, 0.1046°W)
Time: 14:48:37
(UTC+01:00)

ISS - Visible Passes

Search period start: 23 July 2014 00:00
Search period end: 02 August 2014 00:00
Orbit: 413 x 420 km, 51.6° (Epoch: 23 July)

Date Brightness Start Highest point End Pass type
(mag) Time Alt. Az. Time Alt. Az. Time Alt. Az.
23 Jul -1.5 02:37:05 19° SE 02:37:05 19° SE 02:39:30 10° E visible
23 Jul -3.1 04:10:02 10° WSW 04:13:22 63° SSE 04:16:43 10° E visible
24 Jul -0.6 01:50:15 10° ESE 01:50:15 10° ESE 01:50:22 10° ESE visible
24 Jul -2.9 03:23:07 23° SW 03:24:55 48° SSE 03:28:11 10° E visible
25 Jul -2.5 02:36:15 34° SSE 02:36:30 35° SSE 02:39:36 10° E visible
25 Jul -3.3 04:09:41 10° W 04:13:03 87° S 04:16:26 10° E visible
26 Jul -1.4 01:49:22 20° ESE 01:49:22 20° ESE 01:50:57 10° E visible
26 Jul -3.3 03:22:14 19° WSW 03:24:33 75° SSE 03:27:55 10° E visible
27 Jul -3.3 02:35:20 46° SW 02:36:03 60° SSE 02:39:23 10° E visible
27 Jul -3.2 04:09:24 10° W 04:12:46 86° N 04:16:09 10° E visible
28 Jul -2.4 01:48:25 36° ESE 01:48:25 36° ESE 01:50:50 10° E visible
28 Jul -3.3 03:21:18 13° W 03:24:15 87° N 03:27:37 10° E visible
29 Jul -0.9 01:01:30 15° E 01:01:30 15° E 01:02:15 10° E visible
29 Jul -3.4 02:34:23 34° WSW 02:35:43 86° S 02:39:05 10° E visible
29 Jul -3.3 04:09:06 10° W 04:12:29 83° S 04:15:51 10° ESE visible
30 Jul -3.3 01:47:29 67° ESE 01:47:29 67° ESE 01:50:33 10° E visible
30 Jul -3.3 03:20:34 10° W 03:23:57 88° N 03:27:20 10° E visible
31 Jul -1.5 01:00:37 23° E 01:00:37 23° E 01:02:01 10° E visible
31 Jul -3.3 02:33:29 24° W 02:35:24 85° N 02:38:47 10° E visible
31 Jul -3.2 04:08:48 10° W 04:12:07 57° SSW 04:15:25 10° ESE visible
01 Aug -3.4 01:46:43 82° W 01:46:51 88° N 01:50:14 10° E visible
01 Aug -3.4 03:20:15 10° W 03:23:37 72° SSW 03:26:58 10° ESE visible
